Flight Track Log - Related Links

Times and Time Zones

All times are in EST time to prevent confusion due to time zone crossing. See the AAY863 flight status page for this flight to view local times or setup timezone preferences in your user account.

Time Position Orientation Groundspeed Altitude Reporting Facility
EST Latitude Longitude Course Direction KTS MPH feet Rate Location/Type
Tue 07:11:13 PM 41.8475 -91.6167 138° Southeast 232 267 3,600  Level Chicago Center
Tue 07:12:15 PM 41.8017 -91.5350 127° Southeast 268 308 6,700 3,048 Climbing Chicago Center
Tue 07:13:17 PM 41.7375 -91.4408 132° Southeast 289 333 9,900 2,274 Climbing Chicago Center
Tue 07:14:19 PM 41.6658 -91.3633 141° Southeast 334 384 11,400 2,081 Climbing Chicago Center
Tue 07:15:21 PM 41.5833 -91.2839 144° Southeast 365 420 14,200 2,613 Climbing Chicago Center
Tue 07:16:00 PM 41.1890 -91.2264 138° Southeast  Level FlightAware Approximate
Tue 07:16:23 PM 41.4900 -91.1964 145° Southeast 380 437 16,800  Level Chicago Center
Tue 07:17:25 PM 41.4003 -91.1089 144° Southeast 396 456 18,700 1,935 Climbing Chicago Center
Tue 07:18:27 PM 41.3053 -91.0219 145° Southeast 412 474 20,800 1,887 Climbing Chicago Center
Tue 07:19:29 PM 41.2106 -90.9292 144° Southeast 421 484 22,600 1,645 Climbing Chicago Center
Tue 07:20:31 PM 41.1103 -90.8375 145° Southeast 437 503 24,200 1,597 Climbing Chicago Center
Tue 07:21:33 PM 40.9861 -90.7222 145° Southeast 453 521 25,900 1,350 Climbing Chicago Center
Tue 07:27:20 PM 40.3850 -90.1683 145° Southeast 492 566 33,400 1,104 Climbing FlightAware ADS-B
Tue 07:31:36 PM 40.3850 -90.1683 146° Southeast 467 537 37,000 788 Climbing FlightAware ADS-B
Tue 07:31:54 PM 40.3850 -90.1683 141° Southeast 473 544 37,000  Level FlightAware ADS-B
Tue 07:32:46 PM 39.7589 -89.5942 141° Southeast 471 542 37,000  Level Kansas City Center
Tue 07:38:20 PM 39.1733 -88.9941 142° Southeast 471 542 37,000  Level FlightAware ADS-B
Tue 07:38:51 PM 39.1222 -88.9424 142° Southeast 471 542 37,000  Level FlightAware ADS-B
Tue 07:39:21 PM 39.0680 -88.8877 142° Southeast 472 543 37,000  Level FlightAware ADS-B
Tue 07:40:01 PM 39.0034 -88.8227 142° Southeast 472 543 37,000 85 Level FlightAware ADS-B
Tue 07:40:32 PM 38.9461 -88.7653 142° Southeast 470 541 37,100  Climbing FlightAware ADS-B
Tue 07:41:21 PM 38.8634 -88.6823 142° Southeast 467 537 37,000 -75 Descending FlightAware ADS-B
Tue 07:41:52 PM 38.8240 -88.6428 142° Southeast 466 536 37,000  Level FlightAware ADS-B
Tue 07:42:32 PM 38.7425 -88.5614 142° Southeast 463 533 37,000  Level FlightAware ADS-B
Tue 07:43:02 PM 38.6921 -88.5112 142° Southeast 461 531 37,000  Level FlightAware ADS-B
Tue 07:44:02 PM 38.5906 -88.4104 142° Southeast 459 528 37,000  Level FlightAware ADS-B
Tue 07:44:41 PM 38.5284 -88.3489 142° Southeast 456 525 37,000  Level FlightAware ADS-B
Tue 07:45:22 PM 38.4722 -88.2935 142° Southeast 456 525 37,000  Level FlightAware ADS-B
Tue 07:45:59 PM 38.3958 -88.2182 142° Southeast 457 526 37,000  Level FlightAware ADS-B
Tue 07:46:32 PM 38.3462 -88.1696 142° Southeast 456 525 37,000 83 Level FlightAware ADS-B
Tue 07:47:11 PM 38.2744 -88.0991 142° Southeast 453 521 37,100 86 Climbing FlightAware ADS-B
Tue 07:47:42 PM 38.2238 -88.0496 142° Southeast 451 519 37,100 -91 Level FlightAware ADS-B
Tue 07:48:17 PM 38.1651 -87.9921 142° Southeast 448 516 37,000 -86 Descending FlightAware ADS-B
Tue 07:48:52 PM 38.1091 -87.9371 142° Southeast 444 511 37,000  Level FlightAware ADS-B
Tue 07:49:31 PM 38.0484 -87.8782 143° Southeast 441 507 37,000  Level FlightAware ADS-B
Tue 07:50:10 PM 37.9825 -87.8143 142° Southeast 437 503 37,000  Level FlightAware ADS-B
Tue 07:50:52 PM 37.9142 -87.7547 150° Southeast 418 481 37,000  Level FlightAware ADS-B
Tue 07:51:27 PM 37.8594 -87.7190 154° Southeast 404 465 37,000  Level FlightAware ADS-B
Tue 07:52:23 PM 37.9142 -87.7547 154° Southeast 405 466 37,000 28 Level FlightAware ADS-B
Tue 07:54:58 PM 37.4994 -87.4989 154° Southeast 413 475 37,100 28 Climbing FlightAware ADS-B
Tue 07:56:00 PM 37.4994 -87.4989 154° Southeast 412 474 37,100 -55 Level FlightAware ADS-B
Tue 07:56:47 PM 37.3094 -87.3831 154° Southeast 410 472 37,000 -66 Descending FlightAware ADS-B (EPWR / WRO)
Tue 07:57:31 PM 37.2332 -87.3370 154° Southeast 410 472 37,000  Level FlightAware ADS-B (EPWR / WRO)
Tue 07:58:11 PM 37.1750 -87.3018 154° Southeast 409 471 37,000  Level FlightAware ADS-B (EPWR / WRO)
Tue 07:58:59 PM 37.0918 -87.2516 155° Southeast 407 468 37,000 232 Level FlightAware ADS-B (EPWR / WRO)
Tue 08:00:46 PM 36.9064 -87.1403 154° Southeast 407 468 37,600 403 Climbing FlightAware ADS-B (EPWR / WRO)
Tue 08:01:28 PM 36.8298 -87.0942 154° Southeast 410 472 38,000 437 Climbing FlightAware ADS-B (EPWR / WRO)
Tue 08:03:17 PM 36.6436 -86.9834 155° Southeast 418 481 38,700 375 Climbing FlightAware ADS-B (EPWR / WRO)
Tue 08:03:52 PM 36.5877 -86.9503 155° Southeast 421 484 38,900 265 Climbing FlightAware ADS-B (EPWR / WRO)
Tue 08:04:25 PM 36.5877 -86.9503 155° Southeast 420 483 39,000 71 Climbing FlightAware ADS-B (EPWR / WRO)
Tue 08:05:17 PM 36.4335 -86.8588 155° Southeast 421 484 39,000  Level FlightAware ADS-B (EPWR / WRO)
Tue 08:06:25 PM 36.3231 -86.7937 155° Southeast 420 483 39,000  Level FlightAware ADS-B (KMDQ)
Tue 08:07:05 PM 36.2495 -86.7504 155° Southeast 416 479 39,000  Level FlightAware ADS-B (KMDQ)
Tue 08:07:45 PM 36.1773 -86.7081 155° Southeast 414 476 39,000  Level FlightAware ADS-B (KMDQ)
Tue 08:08:20 PM 36.1531 -86.6939 158° South 406 467 39,000  Level FlightAware ADS-B (KMDQ)
Tue 08:09:06 PM 36.0578 -86.6451 158° South 407 468 39,000  Level FlightAware ADS-B (KMDQ)
Tue 08:09:44 PM 35.9965 -86.6148 158° South 411 473 39,000  Level FlightAware ADS-B (KMDQ)
Tue 08:10:27 PM 35.8964 -86.5649 158° South 413 475 39,000 75 Level FlightAware ADS-B (KMDQ)
Tue 08:11:04 PM 35.8256 -86.5299 158° South 414 476 39,100 77 Climbing FlightAware ADS-B (KMDQ)
Tue 08:11:45 PM 35.7573 -86.4961 158° South 413 475 39,100  Level FlightAware ADS-B (KMDQ)
Tue 08:12:25 PM 35.6906 -86.4633 158° South 412 474 39,100 -75 Level FlightAware ADS-B (KMDQ)
Tue 08:13:05 PM 35.6173 -86.4272 158° South 412 474 39,000 -76 Descending FlightAware ADS-B (KMDQ)
Tue 08:13:44 PM 35.5413 -86.3900 158° South 412 474 39,000  Level FlightAware ADS-B (KMDQ)
Tue 08:14:25 PM 35.4688 -86.3544 158° South 411 473 39,000 74 Level FlightAware ADS-B (KMDQ)
Tue 08:15:05 PM 35.4032 -86.3223 158° South 408 470 39,100  Climbing FlightAware ADS-B (KMDQ)
Tue 08:15:48 PM 35.3339 -86.2884 158° South 406 467 39,000 -76 Descending FlightAware ADS-B (KMDQ)
Tue 08:16:24 PM 35.2622 -86.2535 158° South 404 465 39,000  Level FlightAware ADS-B (KMDQ)
Tue 08:17:05 PM 35.1907 -86.2188 158° South 404 465 39,000  Level FlightAware ADS-B (KMDQ)
Tue 08:17:45 PM 35.1223 -86.1856 158° South 404 465 39,000  Level FlightAware ADS-B (KMDQ)
Tue 08:18:24 PM 35.0510 -86.1509 158° South 405 466 39,000  Level FlightAware ADS-B (KMDQ)
Tue 08:19:04 PM 34.9842 -86.1187 158° South 404 465 39,000  Level FlightAware ADS-B (KMDQ)
Tue 08:19:45 PM 34.9121 -86.0839 158° South 405 466 39,000  Level FlightAware ADS-B (KMDQ)
Tue 08:20:24 PM 34.8470 -86.0524 158° South 405 466 39,000  Level FlightAware ADS-B (KMDQ)
Tue 08:21:04 PM 34.7708 -86.0157 158° South 407 468 39,000  Level FlightAware ADS-B (KMDQ)
Tue 08:23:24 PM 34.5482 -85.9090 159° South 409 471 39,000  Level FlightAware ADS-B (KMDQ)
Tue 08:24:04 PM 34.4564 -85.8652 159° South 409 471 39,000  Level FlightAware ADS-B (KMDQ)
Tue 08:24:44 PM 34.3884 -85.8326 158° South 410 472 39,000  Level FlightAware ADS-B (KMDQ)
Tue 08:25:24 PM 34.3162 -85.7982 158° South 410 472 39,000  Level FlightAware ADS-B (KMDQ)
Tue 08:26:04 PM 34.2440 -85.7640 159° South 410 472 39,000  Level FlightAware ADS-B (KMDQ)
Tue 08:26:41 PM 34.1862 -85.7366 159° South 410 472 39,000  Level FlightAware ADS-B (KMDQ)
Tue 08:27:12 PM 34.1329 -85.7115 159° South 410 472 39,000  Level FlightAware ADS-B (KMDQ)
Tue 08:27:58 PM 34.0464 -85.6733 159° South 409 471 39,000  Level Atlanta Center
Tue 08:28:58 PM 33.9406 -85.6214 158° South 409 471 39,000  Level Atlanta Center
Tue 08:29:58 PM 33.8472 -85.5794 160° South 409 471 39,000  Level Atlanta Center
Tue 08:30:58 PM 33.7394 -85.5278 158° South 409 471 39,000  Level Atlanta Center
Tue 08:31:58 PM 33.6333 -85.4808 160° South 409 471 39,000  Level Atlanta Center
Tue 08:32:58 PM 33.5256 -85.4292 158° South 409 471 39,000  Level Atlanta Center
Tue 08:33:58 PM 33.4194 -85.3828 160° South 409 471 39,000  Level Atlanta Center
Tue 08:34:58 PM 33.3117 -85.3314 158° South 409 471 39,000  Level Atlanta Center
Tue 08:35:58 PM 33.2036 -85.2825 159° South 414 476 39,000  Level Atlanta Center
Tue 08:36:58 PM 33.0975 -85.2339 159° South 409 471 39,000  Level Atlanta Center
Tue 08:37:58 PM 32.9894 -85.1831 158° South 414 476 39,000  Level Atlanta Center
Tue 08:38:58 PM 32.8731 -85.1369 162° South 406 467 39,000  Level Atlanta Center
Tue 08:39:58 PM 32.7833 -85.1161 169° South 392 451 39,000  Level Atlanta Center
Tue 08:40:58 PM 32.6650 -85.0703 162° South 408 470 39,000  Level Atlanta Center
Tue 08:41:58 PM 32.5503 -85.0319 164° South 408 470 39,000  Level Atlanta Center
Tue 08:42:58 PM 32.4381 -84.9936 164° South 415 478 39,000  Level Atlanta Center
Tue 08:43:58 PM 32.3275 -84.9581 165° South 409 471 39,000  Level Atlanta Center
Tue 08:45:50 PM 32.1339 -84.8944 164° South 406 467 39,000  Level Jacksonville Center
Tue 08:46:50 PM 32.0239 -84.8578 164° South 406 467 39,000  Level Jacksonville Center
Tue 08:47:50 PM 31.9139 -84.8211 164° South 414 476 39,000  Level Jacksonville Center
Tue 08:53:00 PM 31.3432 -84.5973 156° South 429 494 39,000 17 Level FlightAware ADS-B (KONZ)
Tue 08:53:51 PM 31.2426 -84.5445 156° South 427 491 39,100  Climbing FlightAware ADS-B (KONZ)
Tue 08:54:33 PM 31.1701 -84.5067 156° South 428 493 39,000 -74 Descending FlightAware ADS-B (KONZ)
Tue 08:55:12 PM 31.0976 -84.4688 156° South 428 493 39,000  Level FlightAware ADS-B (KONZ)
Tue 08:56:02 PM 31.0088 -84.4225 156° South 428 493 39,000  Level FlightAware ADS-B (KONZ)
Tue 08:56:33 PM 30.9517 -84.3927 156° South 428 493 39,000  Level FlightAware ADS-B (KONZ)
Tue 08:57:10 PM 30.8842 -84.3576 156° South 428 493 39,000  Level FlightAware ADS-B (KONZ)
Tue 08:58:00 PM 30.7943 -84.3109 156° South 427 491 39,000  Level FlightAware ADS-B (KONZ)
Tue 08:58:32 PM 30.7363 -84.2808 156° South 427 491 39,000  Level FlightAware ADS-B (KONZ)
Tue 08:59:11 PM 30.6717 -84.2474 156° South 428 493 39,000  Level FlightAware ADS-B (KONZ)
Tue 08:59:42 PM 30.6087 -84.2149 156° South 428 493 39,000  Level FlightAware ADS-B (KONZ)
Tue 09:00:14 PM 30.5512 -84.1852 156° South 429 494 39,000  Level FlightAware ADS-B (KONZ)
Tue 09:00:53 PM 30.4869 -84.1520 156° South 431 496 39,000  Level FlightAware ADS-B (KONZ)
Tue 09:01:23 PM 30.4252 -84.1204 156° South 433 498 39,000  Level FlightAware ADS-B (KONZ)
Tue 09:01:54 PM 30.3777 -84.0960 156° South 434 499 39,000  Level FlightAware ADS-B (KONZ)
Tue 09:02:24 PM 30.3129 -84.0628 156° South 437 503 39,000 75 Level FlightAware ADS-B (KONZ)
Tue 09:03:14 PM 30.2194 -84.0146 156° South 437 503 39,100 67 Climbing FlightAware ADS-B (KONZ)
Tue 09:03:54 PM 30.1496 -83.9790 156° South 437 503 39,100  Level FlightAware ADS-B (KONZ)
Tue 09:04:43 PM 30.0551 -83.9307 156° South 436 502 39,100 -67 Level FlightAware ADS-B (KONZ)
Tue 09:05:23 PM 29.9801 -83.8924 156° South 436 502 39,000 -66 Descending FlightAware ADS-B (KONZ)
Tue 09:06:14 PM 29.8868 -83.8449 156° South 434 499 39,000  Level FlightAware ADS-B (KONZ)
Tue 09:06:49 PM 29.8247 -83.8167 156° South 432 497 39,000 -313 Level Jacksonville Center
Tue 09:07:50 PM 29.7167 -83.7606 156° South 432 497 38,500 -843 Descending Jacksonville Center
Tue 09:08:50 PM 29.6064 -83.7047 156° South 432 497 37,300 -2,150 Descending Jacksonville Center
Tue 09:09:50 PM 29.4961 -83.6489 156° South 432 497 34,200 -2,900 Descending Jacksonville Center
Tue 09:10:50 PM 29.3919 -83.5981 157° South 443 510 31,500 -2,521 Descending Jacksonville Center
Tue 09:11:49 PM 29.2817 -83.5425 156° South 443 510 29,200 -2,218 Descending Jacksonville Center
Tue 09:12:49 PM 29.1753 -83.4825 154° Southeast 431 496 27,100 -2,100 Descending Jacksonville Center
Tue 09:13:49 PM 29.0775 -83.4178 150° Southeast 421 484 25,000 -2,000 Descending Jacksonville Center
Tue 09:14:49 PM 28.9817 -83.3578 151° Southeast 409 471 23,100 -1,884 Descending Jacksonville Center
Tue 09:15:50 PM 28.8881 -83.2981 151° Southeast 398 458 21,200 -1,686 Descending Jacksonville Center
Tue 09:16:50 PM 28.8006 -83.2433 151° Southeast 386 444 19,700 -1,664 Descending Jacksonville Center
Tue 09:17:49 PM 28.7131 -83.1886 151° Southeast 364 419 17,900 -1,587 Descending Jacksonville Center
Tue 09:19:25 PM 28.5667 -83.1000 152° Southeast 336 387 15,600 -1,417 Descending Tampa TRACON
Tue 09:20:13 PM 28.5000 -83.0500 147° Southeast 327 376 14,500 -1,333 Descending Tampa TRACON
Tue 09:21:13 PM 28.4333 -83.0000 147° Southeast 320 368 13,200 -843 Descending Tampa TRACON
Tue 09:22:14 PM 28.3500 -82.9667 161° South 313 360 12,800 -793 Descending Tampa TRACON
Tue 09:23:14 PM 28.2833 -82.9167 147° Southeast 288 331 11,600 -1,476 Descending Tampa TRACON
Tue 09:24:20 PM 28.2000 -82.8833 161° South 282 325 9,700 -1,667 Descending Tampa TRACON
Tue 09:25:20 PM 28.1333 -82.8500 156° South 280 322 8,100 -1,714 Descending Tampa TRACON
Tue 09:26:26 PM 28.0500 -82.8333 170° South 265 305 6,100 -2,095 Descending Tampa TRACON
Tue 09:27:26 PM 27.9833 -82.8167 168° South 258 297 3,700 -1,550 Descending Tampa TRACON
Tue 09:28:26 PM 27.9167 -82.7833 156° South 234 269 3,000 -350 Descending Tampa TRACON
Tue 09:29:26 PM 27.8500 -82.7667 168° South 207 238 3,000 -238 Level Tampa TRACON
Tue 09:30:32 PM 27.7833 -82.7500 168° South 203 234 2,500 -476 Descending Tampa TRACON
Tue 09:31:32 PM 27.7500 -82.7333 156° South 190 219 2,000 -250 Descending Tampa TRACON
Tue 09:32:32 PM 27.7333 -82.6667 106° East 172 198 2,000  Level Tampa TRACON
Tue 09:33:32 PM 27.7833 -82.6667 360° North 142 163 2,000 -250 Level Tampa TRACON
Tue 09:34:32 PM 27.8167 -82.6667 360° North 147 169 1,500 -550 Descending Tampa TRACON
Tue 09:35:32 PM 27.8500 -82.6833 336° Northwest 130 150 900 -650 Descending Tampa TRACON
Tue 09:36:32 PM 27.9000 -82.6833 360° North 126 145 200 -700 Descending Tampa TRACON

Login

Don't have an account? Register now (free) for customized features, flight alerts, and more!